Torna al catalogo

STARLINK-4374

AttivoComunicazioniSSO
NORAD 53652·PAYLOAD·🇺🇸 United States

Lanciato Aug 31, 2022 da Vandenberg Space Force Base

Loading…

Prossimi Passaggi (prossime 24 ore)

TLE

AggiornatoSource: CelesTrak SupGP

Epoca: Sep 15, 2026, 01:19 UTC

1 53652C 22105E   26258.05534722  .00436280  00000+0  26113-1 0  2586
2 53652  97.2847 132.1697 0001681  85.5197 189.8687 15.10894506    17

Traccia STARLINK-4374 in tempo reale con AllMySat

Download on the App Store